DW7572 Weather Reports


time (UTC)temp
F
wind
direction
speed
knots
gust
knots
rain 1hr
in
rain 24hr
in
rain mn
in
humidity
%
barometer
mb
20260903180517 84 180 11.3 19.1 0.00 0.25 0.25 74 1009.4
20260903175516 83 180 11.3 18.2 0.00 0.25 0.25 75 1009.3
20260903174516 83 180 13.9 25.2 0.00 0.25 0.25 73 1009.4
20260903173516 83 180 10.4 18.2 0.00 0.25 0.25 73 1009.6
20260903172516 82 180 13.9 19.1 0.00 0.25 0.25 73 1009.5
20260903171516 82 180 13.0 20.0 0.00 0.25 0.25 74 1009.5
20260903170515 80 180 12.2 20.9 0.00 0.25 0.25 75 1009.6
20260903165516 82 180 13.0 21.7 0.00 0.25 0.25 72 1009.8
20260903164516 80 180 14.8 22.6 0.00 0.25 0.25 74 1009.5
20260903163516 83 180 13.9 21.7 0.00 0.25 0.25 71 1009.5
20260903162515 83 180 15.6 23.5 0.00 0.25 0.25 70 1009.5
20260903161515 83 180 16.5 25.2 0.00 0.25 0.25 71 1009.7
20260903160516 83 180 17.4 27.8 0.00 0.25 0.25 72 1009.8
20260903155516 82 158 14.8 21.7 0.00 0.25 0.25 74 1009.9
20260903154515 82 180 14.8 22.6 0.00 0.25 0.25 74 1009.9
20260903153515 81 180 13.0 20.9 0.00 0.25 0.25 76 1009.9
20260903152516 81 180 11.3 18.2 0.00 0.25 0.25 78 1009.9
20260903151516 80 180 13.0 24.3 0.00 0.25 0.25 79 1009.9
20260903150515 80 158 10.4 19.1 0.00 0.25 0.25 81 1010.0
20260903145515 79 158 11.3 20.0 0.00 0.25 0.25 80 1010.2
20260903144516 78 158 9.6 16.5 0.00 0.25 0.25 82 1010.1
20260903143516 77 158 11.3 16.5 0.00 0.25 0.25 82 1010.0
20260903142516 77 158 9.6 14.8 0.00 0.25 0.25 83 1009.9
20260903141518 76 158 7.8 13.0 0.00 0.25 0.25 84 1010.0
20260903140538 76 158 7.8 11.3 0.00 0.25 0.25 83 1010.0
20260903135517 76 158 7.8 12.2 0.00 0.25 0.25 82 1009.8
20260903134518 76 158 8.7 13.0 0.00 0.25 0.25 83 1009.8
20260903133517 75 158 7.8 13.9 0.00 0.25 0.25 86 1009.8
20260903132518 73 158 7.8 11.3 0.00 0.25 0.25 90 1010.0
20260903131518 72 158 7.0 11.3 0.00 0.25 0.25 91 1010.1
20260903130517 72 158 5.2 8.7 0.00 0.25 0.25 92 1010.1
20260903125538 72 158 4.3 8.7 0.00 0.25 0.25 91 1010.1
20260903124517 71 158 4.3 7.8 0.00 0.25 0.25 91 1010.0
20260903123517 71 135 3.5 7.8 0.00 0.25 0.25 91 1010.1
20260903122517 71 158 3.5 7.0 0.00 0.25 0.25 90 1010.2
20260903121517 71 135 2.6 7.8 0.00 0.25 0.25 91 1009.9
20260903120517 70 135 3.5 7.0 0.00 0.25 0.25 91 1009.8
20260903115518 70 135 4.3 8.7 0.00 0.25 0.25 91 1009.8
20260903114517 70 158 5.2 8.7 0.00 0.25 0.25 91 1010.1
20260903113517 71 158 6.1 9.6 0.00 0.25 0.25 91 1010.0
20260903112517 71 158 7.0 10.4 0.00 0.25 0.25 91 1009.9
20260903111517 71 158 6.1 10.4 0.01 0.25 0.25 91 1009.8
20260903110518 71 180 7.0 10.4 0.18 0.25 0.25 91 1009.8
20260903105517 71 158 7.0 11.3 0.24 0.25 0.25 92 1009.8
20260903104517 70 158 8.7 13.0 0.25 0.25 0.25 92 1010.0
20260903103629 71 158 8.7 12.2 0.25 0.25 0.25 92 1010.3
20260903102519 71 158 6.1 10.4 0.25 0.25 0.25 92 1011.1
20260903101517 72 158 7.8 12.2 0.24 0.24 0.24 92 1011.4
20260903100518 73 158 7.0 11.3 0.07 0.07 0.07 91 1010.9
20260903095517 74 203 5.2 7.8 0.01 0.01 0.01 93 1010.6
20260903094517 74 180 6.1 8.7 0.00 0.00 0.00 95 1010.6
20260903093517 73 203 3.5 6.1 0.00 0.00 0.00 97 1010.9
20260903092517 73 203 3.5 5.2 0.00 0.00 0.00 97 1011.1
20260903091517 73 225 4.3 6.1 0.00 0.00 0.00 98 1011.2
20260903090517 72 158 6.1 8.7 0.00 0.00 0.00 97 1010.7
20260903085517 72 135 2.6 5.2 0.00 0.00 0.00 98 1010.8
20260903084537 72 135 1.7 2.6 0.00 0.00 0.00 97 1010.8
20260903083517 72 135 1.7 2.6 0.00 0.00 0.00 97 1010.9
20260903082516 72 0.0 0.0 0.00 0.00 0.00 97 1010.7
20260903081517 72 0.0 1.7 0.00 0.00 0.00 97 1010.5
20260903080517 72 0.0 0.9 0.00 0.00 0.00 97 1010.2
20260903075517 72 0.0 0.9 0.00 0.00 0.00 97 1010.3
20260903074517 72 0.0 0.9 0.00 0.00 0.00 97 1010.4
20260903073537 72 0.0 0.9 0.00 0.00 0.00 97 1010.6
20260903072538 72 135 0.9 2.6 0.00 0.00 0.00 96 1010.7
20260903071537 72 135 2.6 3.5 0.00 0.00 0.00 96 1010.7
20260903070516 73 135 1.7 3.5 0.00 0.00 0.00 96 1010.9
20260903065517 73 135 2.6 6.1 0.00 0.00 0.00 96 1010.9
20260903064556 73 135 2.6 6.1 0.00 0.00 0.00 96 1010.8
20260903063517 73 113 2.6 7.0 0.00 0.01 0.00 96 1010.7
20260903062516 73 113 1.7 3.5 0.00 0.01 0.00 96 1010.4
20260903061517 73 113 1.7 3.5 0.00 0.01 0.00 96 1010.5
20260903060516 73 113 2.6 3.5 0.00 0.02 0.00 96 1010.6
20260903055516 73 113 1.7 3.5 0.00 0.02 0.00 96 1010.6
20260903054516 73 113 1.7 3.5 0.00 0.02 0.00 95 1010.9
20260903053516 74 135 1.7 4.3 0.00 0.03 0.00 95 1010.9
20260903052536 74 113 1.7 3.5 0.00 0.04 0.00 94 1010.9
20260903051517 74 135 2.6 4.3 0.00 0.17 0.00 94 1010.7
20260903050517 75 113 2.6 5.2 0.00 0.76 0.00 94 1010.9
20260903045517 75 113 2.6 5.2 0.00 0.80 0.78 94 1010.8
20260903044518 75 135 2.6 4.3 0.00 0.81 0.78 94 1010.8
20260903043518 75 135 2.6 6.1 0.00 0.81 0.78 94 1010.9
20260903042517 75 113 3.5 6.1 0.00 0.81 0.78 94 1010.9
20260903041517 74 113 2.6 4.3 0.00 0.81 0.78 95 1010.8
20260903040518 74 113 2.6 3.5 0.00 0.81 0.78 95 1010.9
20260903035518 74 113 2.6 3.5 0.00 0.81 0.78 94 1010.7
20260903034518 74 113 1.7 3.5 0.00 0.81 0.78 94 1010.8
20260903033537 74 113 1.7 3.5 0.00 0.81 0.78 94 1011.1
20260903032518 75 113 1.7 5.2 0.00 0.81 0.78 93 1011.0
20260903031517 75 135 2.6 3.5 0.00 0.81 0.78 93 1011.1
20260903030518 75 135 1.7 2.6 0.00 0.81 0.78 93 1011.0
20260903025518 75 135 1.7 3.5 0.00 0.81 0.78 93 1011.0
20260903024517 75 135 1.7 3.5 0.00 0.81 0.78 92 1010.8
20260903023517 75 135 1.7 3.5 0.00 0.81 0.78 92 1010.8
20260903022517 75 135 1.7 2.6 0.00 0.81 0.78 92 1010.8
20260903021537 75 135 1.7 2.6 0.00 0.81 0.78 91 1010.8
20260903020517 76 135 1.7 3.5 0.00 0.81 0.78 91 1010.9
20260903015517 76 135 2.6 3.5 0.00 0.81 0.78 91 1010.7
20260903014517 76 135 1.7 2.6 0.00 0.81 0.78 91 1010.6
20260903013537 76 135 1.7 2.6 0.00 0.81 0.78 90 1010.6
20260903012517 77 135 1.7 2.6 0.00 0.81 0.78 90 1010.4
20260903011517 77 135 2.6 3.5 0.00 0.81 0.78 89 1010.3
20260903010517 77 135 1.7 2.6 0.00 0.81 0.78 87 1010.3
20260903005517 78 135 2.6 3.5 0.00 0.81 0.78 87 1010.1
20260903004517 79 135 1.7 2.6 0.00 0.81 0.78 85 1010.4
20260903003537 80 135 1.7 2.6 0.00 0.81 0.78 83 1010.5
20260903002537 81 135 1.7 3.5 0.00 0.81 0.78 80 1010.5
20260903001517 82 135 2.6 3.5 0.00 0.81 0.78 79 1010.6
20260903000517 83 135 2.6 6.1 0.00 0.81 0.78 77 1010.7
20260902235517 84 135 2.6 4.3 0.00 0.81 0.78 76 1010.8
20260902234557 84 135 2.6 6.1 0.00 0.81 0.78 75 1010.6
20260902233537 85 135 2.6 6.1 0.00 0.81 0.78 73 1010.6
20260902232516 85 135 4.3 6.1 0.00 0.81 0.78 73 1010.6
20260902231516 86 135 3.5 7.0 0.00 0.81 0.78 71 1010.7
20260902230517 86 158 3.5 6.1 0.00 0.81 0.78 71 1010.8
20260902225516 87 135 4.3 7.8 0.00 0.81 0.78 68 1010.8
20260902224517 87 135 3.5 7.8 0.00 0.81 0.78 69 1010.8
20260902223516 87 158 4.3 7.0 0.00 0.81 0.78 66 1010.8
20260902222516 87 180 5.2 8.7 0.00 0.81 0.78 67 1010.9
20260902221516 88 158 5.2 9.6 0.00 0.81 0.78 66 1010.9
20260902220516 88 180 3.5 7.0 0.00 0.81 0.78 65 1011.0
20260902215516 88 180 6.1 8.7 0.00 0.81 0.78 63 1011.0
20260902214516 88 158 6.1 9.6 0.00 0.81 0.78 63 1011.0
20260902213516 88 203 5.2 8.7 0.00 0.81 0.78 63 1011.0
20260902212517 88 180 5.2 8.7 0.00 0.81 0.78 65 1011.1
20260902211516 88 158 4.3 8.7 0.00 0.81 0.78 70 1011.3
20260902210516 88 113 1.7 5.2 0.00 0.81 0.78 71 1011.2
20260902205516 87 135 3.5 6.1 0.00 0.81 0.78 71 1011.4
20260902204517 87 135 1.7 3.5 0.00 0.81 0.78 71 1011.4
20260902203516 87 158 3.5 7.0 0.00 0.81 0.78 71 1011.6
20260902202516 86 180 1.7 5.2 0.00 0.81 0.78 70 1011.5
20260902201516 87 180 4.3 7.8 0.00 0.81 0.78 72 1011.6
20260902200516 85 225 0.9 2.6 0.00 0.81 0.78 72 1011.6
20260902195516 85 158 3.5 5.2 0.00 0.81 0.78 73 1011.9
20260902194516 86 203 2.6 4.3 0.00 0.81 0.78 71 1012.0
20260902193516 85 180 1.7 2.6 0.00 0.81 0.78 72 1012.1
20260902192516 84 225 1.7 5.2 0.00 0.81 0.78 72 1012.0
20260902191516 84 135 2.6 6.1 0.00 0.81 0.78 72 1012.1
20260902190557 84 158 0.9 2.6 0.00 0.81 0.78 75 1012.1
20260902185517 84 158 2.6 4.3 0.00 0.81 0.78 74 1012.2
20260902184516 83 203 1.7 3.5 0.00 0.81 0.78 77 1012.2
20260902183517 83 180 2.6 5.2 0.00 0.81 0.78 76 1012.4
20260902182516 82 158 1.7 2.6 0.00 0.81 0.78 77 1012.5
20260902181517 83 135 3.5 7.0 0.00 0.81 0.78 75 1012.6